sat.trackr.live / text

‹ back to catalog

STARLINK-35226

NORAD 65492 · 2025-198A

PAYLOAD ACTIVE UNKNOWN

§ Identity

Operator
Country
US
Launch date
2025-09-05
Launch site
AFETR
Launch vehicle
Mass (kg)
RCS (m²)

Purposes: comms

External: N2YO · Heavens-Above · Gunter

§ Orbital elements

Epoch: 2026-05-24T18:36:25.584768Z

Period
93.85 min
Inclination
53.1588°
Eccentricity
0.0000917
Mean motion
15.34392096 rev/d
Perigee alt
462.1 km
Apogee alt
463.4 km
Semi-major
6,840.9 km
B*
9.4782e-4
RAAN
276.5597°
Arg perigee
95.6050°
Mean anomaly
264.5058°
Rev number
4,028

§ Raw data

STARLINK-352261 65492U 25198A   26144.77529612  .00031775  00000+0  94782-3 0  99922 65492  53.1588 276.5597 0000917  95.6050 264.5058 15.34392096 40287

JSON: /api/v1/satellites/65492 · /tle

For live sub-satellite position, see the globe view (requires WebGL).

§ Visibility from observer

Set your observer location to see the next 7 days of passes ≥ 10°. The values pass through the URL so the page stays shareable.

No JS? Fill the form by hand. The geolocation button needs JavaScript.